,,PA_Meas_PMT16A,,PR_Meas_QMR101_102,,RH_Meas_QMH101,,SR_Meas_QMS101,,TA_Meas_QMH101,,GenWind,,GenWind,
time,status,PA,status,PR,status,RH,status,SR,status,TA,status,DirAvg,status,SpdAvg,
2016-06-17, 08:28:04,VALID,919.102,VALID,0.2,INVALID,112.461,VALID,91.6473,VALID,19.0622,VALID,1,VALID,1.28047,
2016-06-17, 08:29:04,VALID,919.061,VALID,0,INVALID,112.43,VALID,87.672,VALID,19.0622,VALID,38,VALID,1.45742,
2016-06-17, 08:30:04,VALID,919.153,VALID,0,INVALID,112.392,VALID,90.358,VALID,19.0998,VALID,345,VALID,2.17422,
2016-06-17, 08:55:04,VALID,919.577,VALID,0,INVALID,112.148,VALID,76.713,VALID,18.9229,INVALID,360,INVALID,0,
2016-06-17, 09:21:04,VALID,919.806,VALID,0,INVALID,111.896,VALID,69.7293,VALID,18.8254,VALID,30,VALID,1.76289,
2016-06-17, 09:44:04,VALID,920.109,VALID,0,INVALID,111.706,VALID,106.044,VALID,18.7098,VALID,17,VALID,1.82813,
2016-06-17, 09:45:04,VALID,920.183,VALID,0.2,INVALID,111.828,VALID,104.97,VALID,18.5914,VALID,10,VALID,2.01367,
2016-06-17, 09:46:04,VALID,920.194,VALID,0,INVALID,111.805,VALID,102.929,VALID,18.6109,VALID,27,VALID,3.31641,
2016-06-17, 09:47:04,VALID,920.258,VALID,0,INVALID,111.836,VALID,104.433,VALID,18.572,VALID,280,VALID,1.33672,
2016-06-17, 09:48:04,VALID,920.237,VALID,0.2,INVALID,111.813,VALID,112.706,VALID,18.572,VALID,31,VALID,4,
2016-06-17, 09:49:04,VALID,920.217,VALID,0,INVALID,111.744,VALID,120.442,VALID,18.5914,VALID,27,VALID,2.55938,
2016-06-17, 09:50:04,VALID,920.272,VALID,0,INVALID,111.645,VALID,138.921,VALID,18.6708,VALID,32,VALID,2.3,
2016-06-17, 09:51:04,VALID,920.277,VALID,0.2,INVALID,111.691,VALID,147.302,VALID,18.6109,VALID,13,VALID,3.29297,
2016-06-17, 09:52:04,VALID,920.253,VALID,0,INVALID,111.866,VALID,133.227,VALID,18.533,VALID,111,VALID,2.3207,
2016-06-17, 09:53:04,VALID,920.319,VALID,0,INVALID,111.889,VALID,142.037,VALID,18.5135,VALID,11,VALID,2.16289,
2016-06-17, 09:54:04,VALID,920.345,VALID,0,INVALID,111.965,VALID,139.888,VALID,18.494,VALID,64,VALID,1.74219,
2016-06-17, 09:55:04,VALID,920.315,VALID,0,INVALID,111.927,VALID,132.153,VALID,18.5149,VALID,341,VALID,1.44023,
2016-06-17, 09:56:04,VALID,920.379,VALID,0,INVALID,111.98,VALID,136.665,VALID,18.4745,VALID,22,VALID,3.92773,
2016-06-17, 09:57:04,VALID,920.366,VALID,0,INVALID,111.912,VALID,135.161,VALID,18.494,VALID,321,VALID,1.4168,
2016-06-17, 09:58:04,VALID,920.418,VALID,0,INVALID,111.973,VALID,137.954,VALID,18.4355,VALID,24,VALID,1.15547,
2016-06-17, 09:59:04,VALID,920.469,VALID,0.2,INVALID,111.881,VALID,127.748,VALID,18.533,VALID,218,VALID,1.00352,
2016-06-17, 10:00:04,VALID,920.595,VALID,0,INVALID,111.896,VALID,142.789,VALID,18.5135,VALID,52,VALID,0.669922,
2016-06-17, 10:01:04,VALID,920.517,VALID,0,INVALID,112.057,VALID,138.492,VALID,18.4745,VALID,207,VALID,1.01172,
2016-06-17, 10:02:04,VALID,920.563,VALID,0,INVALID,112.018,VALID,142.467,VALID,18.455,VALID,307,VALID,1.55352,
2016-06-17, 10:03:04,VALID,920.506,VALID,0,INVALID,112.217,VALID,152.889,VALID,18.377,VALID,9,VALID,2.41484,
2016-06-17, 10:04:04,VALID,920.581,VALID,0,INVALID,112.087,VALID,127.748,VALID,18.4355,VALID,53,VALID,1.80547,
2016-06-17, 10:05:04,VALID,920.618,VALID,0,INVALID,112.133,VALID,128.392,VALID,18.377,VALID,12,VALID,1.41914,
2016-06-17, 10:06:04,VALID,920.623,VALID,0,INVALID,112.247,VALID,123.235,VALID,18.3561,VALID,21,VALID,0.803906,
2016-06-17, 10:07:04,VALID,920.664,VALID,0,INVALID,112.201,VALID,115.607,VALID,18.377,VALID,39,VALID,1.52227,
2016-06-17, 10:08:04,VALID,920.59,VALID,0,INVALID,112.232,VALID,114.317,VALID,18.377,VALID,13,VALID,2.15859,
2016-06-17, 10:09:04,VALID,920.681,VALID,0,INVALID,112.316,VALID,115.714,VALID,18.3199,VALID,298,VALID,1.22422,
2016-06-17, 10:10:04,VALID,920.736,VALID,0.2,INVALID,112.285,VALID,120.334,VALID,18.3589,VALID,3,VALID,1.1207,
2016-06-17, 10:11:04,VALID,920.689,VALID,0,INVALID,112.4,VALID,114.962,VALID,18.3394,VALID,28,VALID,1.50859,
2016-06-17, 10:12:04,VALID,920.697,VALID,0,INVALID,112.4,VALID,114.747,VALID,18.3004,VALID,105,VALID,0.407031,
2016-06-17, 10:13:04,VALID,920.697,VALID,0,INVALID,112.56,VALID,110.127,VALID,18.2406,VALID,327,VALID,1.17539,
2016-06-17, 10:14:04,VALID,920.748,VALID,0,INVALID,112.506,VALID,120.871,VALID,18.3199,VALID,175,VALID,0.707812,
2016-06-17, 10:15:04,VALID,920.717,VALID,0,INVALID,112.484,VALID,112.706,VALID,18.2796,VALID,51,VALID,1.93047,
2016-06-17, 10:16:04,VALID,920.745,VALID,0.2,INVALID,112.506,VALID,111.631,VALID,18.299,VALID,15,VALID,2.84375,
2016-06-17, 10:17:04,VALID,920.766,VALID,0,INVALID,112.552,VALID,112.383,VALID,18.299,VALID,15,VALID,1.75742,
2016-06-17, 10:18:04,VALID,920.821,VALID,0,INVALID,112.567,VALID,116.466,VALID,18.2601,VALID,101,VALID,1.025,
2016-06-17, 10:19:04,VALID,920.924,VALID,0,INVALID,112.75,VALID,126.781,VALID,18.1612,VALID,259,VALID,0.903906,
2016-06-17, 10:20:04,VALID,920.875,VALID,0.2,INVALID,112.88,VALID,131.508,VALID,18.1431,VALID,13,VALID,2.43281,
2016-06-17, 10:21:04,VALID,920.832,VALID,0,INVALID,112.941,VALID,148.699,VALID,18.1835,VALID,67,VALID,1.94727,
2016-06-17, 10:22:04,VALID,920.892,VALID,0.2,INVALID,112.895,VALID,132.797,VALID,18.1431,VALID,15,VALID,1.21211,
2016-06-17, 10:23:04,VALID,920.955,VALID,0,INVALID,112.895,VALID,129.252,VALID,18.1041,VALID,340,VALID,1.16289,
2016-06-17, 10:24:04,VALID,920.909,VALID,0,INVALID,112.834,VALID,169.22,VALID,18.203,VALID,219,VALID,2.20117,
2016-06-17, 10:25:04,VALID,920.967,VALID,0,INVALID,112.903,VALID,174.27,VALID,18.1236,VALID,30,VALID,1.06797,
2016-06-17, 10:26:04,VALID,920.871,VALID,0,INVALID,112.933,VALID,162.881,VALID,18.1236,VALID,272,VALID,1.73555,
2016-06-17, 10:27:04,VALID,920.903,VALID,0,INVALID,112.941,VALID,150.847,VALID,18.1236,VALID,171,VALID,1.54258,
2016-06-17, 10:28:04,VALID,920.985,VALID,0.2,INVALID,113.01,VALID,144.508,VALID,18.1431,VALID,219,VALID,0.00078125,
2016-06-17, 10:29:04,VALID,920.887,VALID,0,INVALID,113.154,VALID,170.831,VALID,18.1055,VALID,39,VALID,2.10742,
2016-06-17, 10:30:04,VALID,920.97,VALID,0,INVALID,113.032,VALID,169.757,VALID,18.164,VALID,346,VALID,2.39336,
2016-06-17, 10:31:04,VALID,920.975,VALID,0,INVALID,113.139,VALID,163.203,VALID,18.1445,VALID,46,VALID,1.4043,
2016-06-17, 10:32:04,VALID,920.972,VALID,0,INVALID,113.131,VALID,163.203,VALID,18.164,VALID,360,VALID,1.66758,
2016-06-17, 10:33:04,VALID,920.983,VALID,0,INVALID,113.17,VALID,169.435,VALID,18.1445,VALID,89,VALID,0.8375,
2016-06-17, 10:34:04,VALID,920.958,VALID,0,INVALID,113.147,VALID,182.972,VALID,18.1835,VALID,22,VALID,2.4293,
2016-06-17, 10:35:04,VALID,920.948,VALID,0,INVALID,113.215,VALID,168.253,VALID,18.164,VALID,237,VALID,2.06172,
2016-06-17, 10:36:04,VALID,920.917,VALID,0,INVALID,113.154,VALID,180.394,VALID,18.164,VALID,74,VALID,1.53711,
2016-06-17, 10:37:04,VALID,920.957,VALID,0,INVALID,113.36,VALID,149.451,VALID,18.1055,VALID,284,VALID,2.325,
2016-06-17, 10:38:04,VALID,920.97,VALID,0,INVALID,113.33,VALID,143.326,VALID,18.086,VALID,227,VALID,2.2293,
2016-06-17, 10:39:04,VALID,920.971,VALID,0,INVALID,113.177,VALID,151.17,VALID,18.1445,VALID,58,VALID,2.14063,
2016-06-17, 10:40:04,VALID,920.922,VALID,0.2,INVALID,113.139,VALID,147.839,VALID,18.1236,VALID,139,VALID,1.37617,
2016-06-17, 10:41:04,VALID,920.997,VALID,0,INVALID,113.147,VALID,150.31,VALID,18.1236,VALID,357,VALID,3.30625,
2016-06-17, 10:42:04,VALID,921.038,VALID,0,INVALID,113.17,VALID,125.814,VALID,18.1445,VALID,263,VALID,1.24336,
2016-06-17, 10:43:04,VALID,921.051,VALID,0,INVALID,113.086,VALID,144.831,VALID,18.203,VALID,31,VALID,1.72422,
2016-06-17, 10:44:04,VALID,921.037,VALID,0,INVALID,113.01,VALID,107.226,VALID,18.2406,VALID,26,VALID,1.12461,
2016-06-17, 10:45:04,VALID,921.002,VALID,0,INVALID,113.116,VALID,102.821,VALID,18.1821,VALID,63,VALID,1.86133,
2016-06-17, 10:46:04,VALID,921.049,VALID,0,INVALID,113.124,VALID,99.1682,VALID,18.2016,VALID,30,VALID,1.72422,
2016-06-17, 10:47:04,VALID,921.012,VALID,0,INVALID,112.994,VALID,123.45,VALID,18.2809,VALID,41,VALID,2.14766,
2016-06-17, 10:48:04,VALID,920.973,VALID,0,INVALID,113.116,VALID,126.136,VALID,18.2211,VALID,22,VALID,2.47539,
2016-06-17, 10:49:04,VALID,920.986,VALID,0,INVALID,113.292,VALID,126.351,VALID,18.1236,VALID,347,VALID,1.63164,
2016-06-17, 10:50:04,VALID,920.95,VALID,0,INVALID,113.253,VALID,142.36,VALID,18.1626,VALID,18,VALID,2.6832,
2016-06-17, 10:51:04,VALID,920.935,VALID,0,INVALID,113.2,VALID,147.517,VALID,18.1431,VALID,360,VALID,1.37305,
2016-06-17, 10:52:04,VALID,920.987,VALID,0,INVALID,113.246,VALID,137.417,VALID,18.1626,VALID,13,VALID,2.13047,
2016-06-17, 10:53:04,VALID,920.965,VALID,0,INVALID,113.574,VALID,111.094,VALID,18.0457,VALID,6,VALID,2.87227,
2016-06-17, 10:54:04,VALID,920.943,VALID,0,INVALID,113.726,VALID,111.739,VALID,17.9677,VALID,14,VALID,1.53555,
2016-06-17, 10:55:04,VALID,920.975,VALID,0,INVALID,113.612,VALID,117.218,VALID,18.0067,VALID,332,VALID,1.52227,
2016-06-17, 10:56:04,VALID,920.911,VALID,0,INVALID,113.627,VALID,128.392,VALID,17.9482,VALID,9,VALID,2.67188,
2016-06-17, 10:57:04,VALID,920.933,VALID,0,INVALID,113.711,VALID,126.995,VALID,17.9092,VALID,14,VALID,2.87695,
2016-06-17, 10:58:04,VALID,920.875,VALID,0,INVALID,113.688,VALID,159.55,VALID,17.8911,VALID,35,VALID,1.55547,
2016-06-17, 10:59:04,VALID,920.82,VALID,0,INVALID,113.612,VALID,156.434,VALID,17.9287,VALID,27,VALID,2.99961,
2016-06-17, 11:00:04,VALID,920.875,VALID,0,INVALID,113.604,VALID,163.848,VALID,17.9092,VALID,32,VALID,2.19805,
2016-06-17, 11:01:04,VALID,920.881,VALID,0,INVALID,113.543,VALID,146.765,VALID,17.9482,VALID,18,VALID,2.20781,
2016-06-17, 11:02:04,VALID,920.878,VALID,0,INVALID,113.612,VALID,158.476,VALID,17.9482,VALID,37,VALID,1.6418,
2016-06-17, 11:03:04,VALID,920.898,VALID,0,INVALID,113.779,VALID,132.26,VALID,17.9287,VALID,6,VALID,1.99414,
2016-06-17, 11:04:04,VALID,920.897,VALID,0,INVALID,113.924,VALID,113.458,VALID,17.8897,VALID,357,VALID,2.78945,
2016-06-17, 11:05:04,VALID,920.89,VALID,0,INVALID,113.909,VALID,104.648,VALID,17.8702,VALID,17,VALID,2.50195,
2016-06-17, 11:08:04,VALID,920.85,VALID,0,INVALID,114.107,VALID,105.185,VALID,17.795,VALID,19,VALID,2.69375,
2016-06-17, 11:09:04,VALID,920.857,VALID,0,INVALID,114.184,VALID,105.722,VALID,17.7157,VALID,18,VALID,3.08008,
2016-06-17, 11:10:04,VALID,920.871,VALID,0,INVALID,114.222,VALID,98.2012,VALID,17.6572,VALID,36,VALID,1.87852,
2016-06-17, 11:12:04,VALID,920.816,VALID,0,INVALID,114.405,VALID,102.714,VALID,17.5584,VALID,339,VALID,3.37188,
2016-06-17, 11:13:04,VALID,920.823,VALID,0,INVALID,114.351,VALID,111.416,VALID,17.5598,VALID,50,VALID,1.90352,
2016-06-17, 11:14:04,VALID,920.841,VALID,0,INVALID,114.435,VALID,115.392,VALID,17.5013,VALID,17,VALID,1.8832,
2016-06-17, 11:15:04,VALID,920.81,VALID,0,INVALID,114.427,VALID,116.574,VALID,17.5208,VALID,9,VALID,2.32422,
2016-06-17, 11:16:04,VALID,920.68,VALID,0,INVALID,114.504,VALID,111.202,VALID,17.4818,VALID,30,VALID,4.63828,
2016-06-17, 11:17:04,VALID,920.807,VALID,0,INVALID,114.42,VALID,109.375,VALID,17.5208,VALID,25,VALID,3.19492,
2016-06-17, 11:18:04,VALID,920.812,VALID,0,INVALID,114.542,VALID,119.367,VALID,17.5013,VALID,44,VALID,1.42344,
2016-06-17, 11:19:04,VALID,920.837,VALID,0,INVALID,114.443,VALID,123.235,VALID,17.5403,VALID,16,VALID,1.89609,
2016-06-17, 11:20:04,VALID,920.756,VALID,0,INVALID,114.58,VALID,120.119,VALID,17.5013,VALID,13,VALID,2.88555,
2016-06-17, 11:21:04,VALID,920.719,VALID,0,INVALID,114.633,VALID,121.731,VALID,17.4818,VALID,33,VALID,2.78437,
2016-06-17, 11:22:04,VALID,920.733,VALID,0,INVALID,114.649,VALID,133.549,VALID,17.4805,VALID,24,VALID,2.61055,
2016-06-17, 11:23:04,VALID,920.694,VALID,0,INVALID,114.717,VALID,140.963,VALID,17.4805,VALID,349,VALID,3.46367,
2016-06-17, 11:24:04,VALID,920.73,VALID,0,INVALID,114.702,VALID,150.847,VALID,17.5208,VALID,359,VALID,1.93164,
2016-06-17, 11:25:04,VALID,920.744,VALID,0,INVALID,114.656,VALID,156.649,VALID,17.5403,VALID,25,VALID,1.79258,
2016-06-17, 11:26:04,VALID,920.758,VALID,0,INVALID,114.679,VALID,158.046,VALID,17.5584,VALID,9,VALID,1.44375,
2016-06-17, 11:27:04,VALID,920.727,VALID,0,INVALID,114.679,VALID,160.839,VALID,17.5584,VALID,44,VALID,1.79414,
2016-06-17, 11:28:04,VALID,920.754,VALID,0,INVALID,114.649,VALID,168.575,VALID,17.5987,VALID,332,VALID,1.72969,
2016-06-17, 11:29:04,VALID,920.669,VALID,0.2,INVALID,114.74,VALID,183.939,VALID,17.5403,VALID,21,VALID,2.71992,
2016-06-17, 11:30:04,VALID,920.702,VALID,0,INVALID,114.732,VALID,182.865,VALID,17.5792,VALID,349,VALID,0.649609,
2016-06-17, 11:31:04,VALID,920.702,VALID,0,INVALID,114.687,VALID,184.799,VALID,17.6169,VALID,30,VALID,2.02813,
2016-06-17, 11:32:04,VALID,920.671,VALID,0,INVALID,114.717,VALID,202.097,VALID,17.6169,VALID,17,VALID,1.67734,
2016-06-17, 11:33:04,VALID,920.63,VALID,0,INVALID,114.732,VALID,222.296,VALID,17.6754,VALID,360,VALID,2.41758,
2016-06-17, 11:34:04,VALID,920.671,VALID,0,INVALID,114.793,VALID,256.247,VALID,17.6559,VALID,3,VALID,0.646875,
2016-06-17, 11:35:04,VALID,920.652,VALID,0,INVALID,114.755,VALID,261.512,VALID,17.7157,VALID,33,VALID,0.410156,
2016-06-17, 11:36:04,VALID,920.599,VALID,0,INVALID,114.74,VALID,265.809,VALID,17.7728,VALID,25,VALID,1.97656,
2016-06-17, 11:37:04,VALID,920.58,VALID,0,INVALID,114.694,VALID,279.777,VALID,17.8897,VALID,27,VALID,1.13359,
2016-06-17, 11:38:04,VALID,920.562,VALID,0,INVALID,114.771,VALID,287.62,VALID,17.9106,VALID,33,VALID,1.72852,
2016-06-17, 11:39:04,VALID,920.567,VALID,0,INVALID,114.748,VALID,307.174,VALID,18.0275,VALID,3,VALID,1.53594,
2016-06-17, 11:40:04,VALID,920.545,VALID,0,INVALID,114.793,VALID,315.77,VALID,17.9886,VALID,353,VALID,1.21797,
2016-06-17, 11:41:04,VALID,920.496,VALID,0,INVALID,114.755,VALID,315.447,VALID,18.047,VALID,13,VALID,2.19414,
2016-06-17, 11:42:04,VALID,920.497,VALID,0,INVALID,114.748,VALID,308.356,VALID,18.125,VALID,21,VALID,1.33359,
2016-06-17, 11:43:04,VALID,920.483,VALID,0,INVALID,114.702,VALID,305.348,VALID,18.2601,VALID,22,VALID,1.17031,
2016-06-17, 11:44:04,VALID,920.489,VALID,0,INVALID,114.786,VALID,304.703,VALID,18.2809,VALID,229,VALID,0.925781,
2016-06-17, 11:45:04,VALID,920.427,VALID,0,INVALID,114.725,VALID,301.158,VALID,18.3199,VALID,35,VALID,1.51094,
2016-06-17, 11:46:04,VALID,920.421,VALID,0,INVALID,114.466,VALID,299.546,VALID,18.2406,VALID,314,VALID,1.36719,
2016-06-17, 11:47:04,VALID,920.436,VALID,0,INVALID,113.49,VALID,300.728,VALID,18.1835,VALID,285,VALID,1.02383,
2016-06-17, 11:48:04,VALID,920.384,VALID,0,INVALID,113.619,VALID,297.505,VALID,18.2601,VALID,359,VALID,1.10117,
2016-06-17, 11:49:04,VALID,920.372,VALID,0,INVALID,113.299,VALID,293.637,VALID,18.2601,VALID,285,VALID,0.409766,
2016-06-17, 11:50:04,VALID,920.384,VALID,0,INVALID,112.384,VALID,288.265,VALID,18.3575,VALID,5,VALID,0,
2016-06-17, 11:51:04,VALID,920.308,VALID,0,INVALID,111.813,VALID,287.727,VALID,18.455,VALID,38,VALID,1.41602,
2016-06-17, 11:52:04,VALID,920.376,VALID,0,INVALID,109.64,VALID,291.81,VALID,18.5135,VALID,280,VALID,0.569141,
2016-06-17, 11:53:04,VALID,920.35,VALID,0,INVALID,110.829,VALID,289.339,VALID,18.6499,VALID,269,VALID,0.59375,
2016-06-17, 11:54:04,VALID,920.316,VALID,0,INVALID,110.372,VALID,288.479,VALID,18.6694,VALID,227,VALID,0.811719,
2016-06-17, 11:55:04,VALID,920.326,VALID,0,INVALID,109.93,VALID,287.083,VALID,18.6694,VALID,275,VALID,0.849219,
2016-06-17, 11:56:04,VALID,920.275,VALID,0,INVALID,110.158,VALID,286.76,VALID,18.707,VALID,7,VALID,1.4625,
2016-06-17, 11:57:04,VALID,920.262,VALID,0,INVALID,109.983,VALID,290.843,VALID,18.7279,VALID,3,VALID,1.09844,
2016-06-17, 11:58:04,VALID,920.219,VALID,0,INVALID,111.5,VALID,290.199,VALID,18.8059,VALID,32,VALID,1.35312,
2016-06-17, 11:59:04,VALID,920.219,VALID,0,INVALID,110.257,VALID,286.653,VALID,18.7669,VALID,360,VALID,0.167187,
2016-06-17, 12:00:04,VALID,920.222,VALID,0,INVALID,111.401,VALID,282.893,VALID,18.8449,VALID,356,VALID,0,
2016-06-17, 12:01:04,VALID,920.228,VALID,0,INVALID,112.118,VALID,281.926,VALID,18.9424,VALID,246,VALID,0,
2016-06-17, 12:02:04,VALID,920.187,VALID,0,INVALID,110.189,VALID,281.926,VALID,18.8824,VALID,290,VALID,0,
2016-06-17, 12:03:04,VALID,920.182,VALID,0,INVALID,110.135,VALID,281.711,VALID,18.8434,VALID,336,VALID,0,
2016-06-17, 12:04:04,VALID,920.155,VALID,0,INVALID,111.256,VALID,284.934,VALID,18.8254,VALID,347,VALID,1.19023,
2016-06-17, 12:05:04,VALID,920.087,VALID,0,INVALID,111.584,VALID,291.058,VALID,18.7265,VALID,30,VALID,1.85586,
2016-06-17, 12:06:04,VALID,920.131,VALID,0,INVALID,111.226,VALID,299.546,VALID,18.6694,VALID,6,VALID,2.05664,
2016-06-17, 12:07:04,VALID,920.115,VALID,0,INVALID,111.431,VALID,307.497,VALID,18.6694,VALID,334,VALID,1.11641,
2016-06-17, 12:08:04,VALID,920.078,VALID,0,INVALID,112.484,VALID,314.695,VALID,18.746,VALID,333,VALID,0,
2016-06-17, 12:09:04,VALID,920.04,VALID,0,INVALID,113.055,VALID,322.216,VALID,18.824,VALID,14,VALID,1.40742,
2016-06-17, 12:10:04,VALID,919.998,VALID,0,INVALID,112.293,VALID,326.836,VALID,18.8045,VALID,21,VALID,2.20313,
2016-06-17, 12:11:04,VALID,919.968,VALID,0,INVALID,112.834,VALID,328.555,VALID,18.8824,VALID,18,VALID,2.0207,
2016-06-17, 12:12:04,VALID,919.947,VALID,0,INVALID,111.95,VALID,328.018,VALID,18.8434,VALID,11,VALID,1.24219,
2016-06-17, 12:13:04,VALID,919.918,VALID,0,INVALID,113.147,VALID,326.191,VALID,18.9604,VALID,7,VALID,0.521484,
2016-06-17, 12:14:04,VALID,919.876,VALID,0,INVALID,113.345,VALID,322.001,VALID,19.0384,VALID,21,VALID,0.173047,
2016-06-17, 12:15:04,VALID,919.861,VALID,0,INVALID,110.73,VALID,314.695,VALID,18.9994,VALID,13,VALID,0.0851562,
2016-06-17, 12:16:04,VALID,919.836,VALID,0,INVALID,110.387,VALID,306.744,VALID,18.9799,VALID,16,VALID,0.519531,
2016-06-17, 12:17:04,VALID,919.834,VALID,0,VALID,104,VALID,298.579,VALID,18.8824,VALID,10,VALID,0.104297,
2016-06-17, 12:18:04,VALID,919.823,VALID,0,INVALID,109.67,VALID,290.521,VALID,18.9214,VALID,3,VALID,0,
2016-06-17, 12:19:04,VALID,919.795,VALID,0,INVALID,110.021,VALID,283.215,VALID,18.9604,VALID,6,VALID,0.392188,
2016-06-17, 12:20:04,VALID,919.742,VALID,0,INVALID,109.808,VALID,276.339,VALID,18.9409,VALID,18,VALID,1.40742,
2016-06-17, 12:21:04,VALID,919.768,VALID,0,INVALID,111.226,VALID,269.892,VALID,18.959,VALID,351,VALID,0,
2016-06-17, 12:22:04,VALID,919.765,VALID,0,INVALID,111.767,VALID,265.702,VALID,18.998,VALID,358,VALID,0,
2016-06-17, 12:23:04,VALID,919.722,VALID,0,INVALID,109.991,VALID,262.909,VALID,18.9785,VALID,315,VALID,0,
2016-06-17, 12:24:04,VALID,919.723,VALID,0,INVALID,110.936,VALID,261.512,VALID,19.0564,VALID,356,VALID,0.998438,
2016-06-17, 12:25:04,VALID,919.684,VALID,0,INVALID,110.212,VALID,261.297,VALID,19.0564,VALID,22,VALID,0,
2016-06-17, 12:26:04,VALID,919.672,VALID,0,INVALID,111.073,VALID,262.909,VALID,19.1359,VALID,356,VALID,0,
2016-06-17, 12:27:04,VALID,919.638,VALID,0,INVALID,110.12,VALID,266.561,VALID,19.1164,VALID,2,VALID,0,
2016-06-17, 12:28:04,VALID,919.605,VALID,0,INVALID,110.601,VALID,272.901,VALID,19.1749,VALID,344,VALID,0,
2016-06-17, 12:29:04,VALID,919.579,VALID,0,INVALID,111.027,VALID,281.926,VALID,19.2528,VALID,350,VALID,0,
2016-06-17, 12:30:04,VALID,919.55,VALID,0,INVALID,111.271,VALID,293.529,VALID,19.3308,VALID,346,VALID,0,
2016-06-17, 12:31:04,VALID,919.523,VALID,0,INVALID,110.639,VALID,307.604,VALID,19.3893,VALID,335,VALID,0,
2016-06-17, 12:32:04,VALID,919.506,VALID,0,VALID,104,VALID,318.456,VALID,19.4088,VALID,285,VALID,0,
2016-06-17, 12:33:04,VALID,919.478,VALID,0,VALID,104,VALID,334.142,VALID,19.4478,VALID,338,VALID,0,
2016-06-17, 12:34:04,VALID,919.456,VALID,0,INVALID,109.434,VALID,344.349,VALID,19.5843,VALID,20,VALID,0,
2016-06-17, 12:35:04,VALID,919.414,VALID,0,VALID,104,VALID,361.647,VALID,19.7208,VALID,23,VALID,0,
2016-06-17, 12:36:04,VALID,919.415,VALID,0,VALID,104,VALID,365.73,VALID,19.7988,VALID,21,VALID,0,
2016-06-17, 12:37:04,VALID,919.405,VALID,0,VALID,103.267,VALID,364.763,VALID,19.7418,VALID,355,VALID,0,
2016-06-17, 12:38:04,VALID,919.381,VALID,0,VALID,103.099,VALID,365.73,VALID,19.6428,VALID,335,VALID,0,
2016-06-17, 12:39:04,VALID,919.362,VALID,0,VALID,104,VALID,365.945,VALID,19.6413,VALID,349,VALID,0,
2016-06-17, 12:40:04,VALID,919.376,VALID,0,VALID,104,VALID,363.151,VALID,19.7208,VALID,336,VALID,0,
2016-06-17, 12:41:04,VALID,919.339,VALID,0,VALID,104,VALID,368.416,VALID,19.7988,VALID,349,VALID,0,
2016-06-17, 12:42:04,VALID,919.335,VALID,0,VALID,101.186,VALID,368.093,VALID,19.8768,VALID,358,VALID,0,
2016-06-17, 12:43:04,VALID,919.296,VALID,0,VALID,102.55,VALID,365.622,VALID,19.9548,VALID,352,VALID,0,
2016-06-17, 12:44:04,VALID,919.299,VALID,0,VALID,88.5079,VALID,365.622,VALID,19.8948,VALID,331,VALID,0,
2016-06-17, 12:45:04,VALID,919.275,VALID,0,VALID,95.6357,VALID,353.267,VALID,19.8753,INVALID,360,VALID,0,
2016-06-17, 12:46:04,VALID,919.283,VALID,0,VALID,90.8864,VALID,339.084,VALID,19.8768,VALID,339,VALID,0,
2016-06-17, 12:47:04,VALID,919.263,VALID,0,VALID,102.055,VALID,324.687,VALID,19.8963,VALID,33,VALID,1.58477,
2016-06-17, 12:48:04,VALID,919.281,VALID,0,VALID,104,VALID,316.629,VALID,19.9533,VALID,33,VALID,0,
2016-06-17, 12:49:04,VALID,919.268,VALID,0,VALID,104,VALID,312.761,VALID,20.0718,VALID,324,VALID,0,
2016-06-17, 12:50:04,VALID,919.247,VALID,0,VALID,99.8972,VALID,310.935,VALID,20.0508,VALID,283,VALID,0,
2016-06-17, 12:51:04,VALID,919.264,VALID,0,VALID,100.233,VALID,315.77,VALID,20.0508,VALID,300,VALID,0,
2016-06-17, 12:52:04,VALID,919.251,VALID,0,VALID,89.9487,VALID,322.538,VALID,20.0508,VALID,256,VALID,0,
2016-06-17, 12:53:04,VALID,919.204,VALID,0,VALID,90.6195,VALID,328.662,VALID,19.9728,VALID,257,VALID,0,
2016-06-17, 12:54:04,VALID,919.221,VALID,0,VALID,96.947,VALID,336.076,VALID,19.9923,VALID,16,VALID,0,
2016-06-17, 12:55:04,VALID,919.15,VALID,0,VALID,102.482,VALID,346.498,VALID,20.0313,VALID,26,VALID,0,
2016-06-17, 12:56:04,VALID,919.157,VALID,0,VALID,104,VALID,357.242,VALID,20.1483,VALID,24,VALID,0,
2016-06-17, 12:57:04,VALID,919.166,VALID,0,VALID,104,VALID,368.416,VALID,20.2668,VALID,320,VALID,0,
2016-06-17, 12:58:04,VALID,919.166,VALID,0,VALID,86.6935,VALID,376.581,VALID,20.2263,VALID,320,VALID,0,
2016-06-17, 12:59:04,VALID,919.142,VALID,0,VALID,87.8751,VALID,386.358,VALID,20.2653,VALID,313,VALID,0,
2016-06-17, 13:00:04,VALID,919.118,VALID,0,VALID,91.077,VALID,397.103,VALID,20.3628,VALID,348,VALID,0,
2016-06-17, 13:01:04,VALID,919.124,VALID,0,VALID,100.225,VALID,412.896,VALID,20.4018,VALID,39,VALID,0,
2016-06-17, 13:02:04,VALID,919.107,VALID,0,VALID,103.358,VALID,420.202,VALID,20.4603,VALID,341,VALID,0.0195313,
2016-06-17, 13:03:04,VALID,919.135,VALID,0,VALID,88.4926,VALID,423.855,VALID,20.3823,VALID,323,VALID,0,
2016-06-17, 13:04:04,VALID,919.131,VALID,0,VALID,100.995,VALID,441.261,VALID,20.3043,VALID,24,VALID,0.158203,
2016-06-17, 13:05:04,VALID,919.12,VALID,0,VALID,104,VALID,449.104,VALID,20.3417,VALID,11,VALID,0,
2016-06-17, 13:06:04,VALID,919.11,VALID,0,VALID,100.652,VALID,469.41,VALID,20.4018,VALID,28,VALID,0,
2016-06-17, 13:07:04,VALID,919.117,VALID,0,VALID,95.3537,VALID,466.402,VALID,20.4002,VALID,32,VALID,0,
2016-06-17, 13:08:04,VALID,919.1,VALID,0,VALID,104,VALID,487.461,VALID,20.4018,VALID,18,VALID,0,
2016-06-17, 13:09:04,VALID,919.067,VALID,0,VALID,104,VALID,496.486,VALID,20.3417,VALID,22,VALID,0,
2016-06-17, 13:10:04,VALID,919.056,VALID,0,VALID,104,VALID,535.916,VALID,20.3628,VALID,40,VALID,0,
2016-06-17, 13:11:04,VALID,919.059,VALID,0,VALID,104,VALID,545.371,VALID,20.4197,VALID,13,VALID,0,
2016-06-17, 13:12:04,VALID,919.022,VALID,0,VALID,104,VALID,606.076,VALID,20.5383,VALID,1,VALID,0,
2016-06-17, 13:13:04,VALID,919.026,VALID,0,VALID,104,VALID,647.226,VALID,20.6342,VALID,35,VALID,0.307031,
2016-06-17, 13:14:04,VALID,919.01,VALID,0,VALID,104,VALID,701.698,VALID,20.7903,VALID,51,VALID,0,
2016-06-17, 13:15:04,VALID,919.009,VALID,0,VALID,104,VALID,629.82,VALID,21.0243,VALID,274,VALID,0,
2016-06-17, 13:16:04,VALID,919.015,VALID,0,VALID,101.651,VALID,581.579,VALID,21.221,VALID,239,VALID,0,
2016-06-17, 13:17:04,VALID,919.039,VALID,0,VALID,86.4114,VALID,539.462,VALID,21.1429,VALID,248,VALID,0,
2016-06-17, 13:18:04,VALID,919.033,VALID,0,VALID,83.9262,VALID,516.792,VALID,21.1624,VALID,235,VALID,0,